Het weer op Woensdrecht:2014/09/20 19:55 EHWO 201955Z AUTO 32002KT 4500 BR FEW010 OVC018 18/16 Q1015 GRN
Het weer op Amsterdam:2014/09/20 19:55 EHAM 201955Z 35004KT 310V030 9999 BKN018 18/15 Q1015 TEMPO BKN012

Menu promotie
· Startpagina
· Verslag FLY-IN 2009
· De vloot
· Kennismaken


Buien Radar


Picasa foto link
ACV externe fotolink


Inloggen voor leden
WelkomAnonymous!


Lid nummer    
Wachtwoord 
Code: Code
Type Code in
[Wachtwoord vergeten?]


 
Sorry, deze module is niet actief (acv_addon_4)

[ Ga terug ]
copyright (c) ACV 2006 - 2014

All logos and trademarks in this site are property of their respective owner. The comments are property of their posters, all the rest 2005 by me.
PHP-Nuke Copyright © 2005 by Francisco Burzi. This is free software, and you may redistribute it under the GPL. PHP-Nuke comes with absolutely no warranty, for details, see the license.
Pagina Rendering: 0.14 Seconden